Location: Walnut Point State Park
(39.6958°N, 88.0345°W)
Time: 10:10:46
(UTC-06:00)

Cosmos 1833 Rocket - Visible Passes

Search period start: 22 January 2017 00:00
Search period end: 01 February 2017 00:00
Orbit: 833 x 840 km, 71.0° (Epoch: 21 January)

Date Brightness Start Highest point End Pass type
(mag) Time Alt. Az. Time Alt. Az. Time Alt. Az.
26 Jan 5.1 06:27:14 10° NNE 06:30:15 14° NE 06:33:16 10° E visible
27 Jan 5.2 06:10:48 10° NNE 06:13:30 13° NE 06:16:11 10° ENE visible
28 Jan 5.2 05:54:26 10° NNE 05:56:44 12° NE 05:59:02 10° ENE visible
29 Jan 5.3 05:38:09 10° NNE 05:39:58 11° NE 05:41:47 10° ENE visible
30 Jan 5.4 05:22:03 10° NNE 05:23:12 11° NE 05:24:20 10° ENE visible
